User: anonymous   Login
Location: Black Swamp Observatory
(41.3920°N, 84.1250°W)
Time: 04:37:17
(UTC-05:00)
Language:

UKube-1 - Orbit

View from above orbital plane
View from above orbital plane
View from above satellite
View from above satellite

Ground track
Ground track

The orbit data is extracted from the following two-line orbital elements,

1 40074U 14037F   24063.76608095  .00006237  00000-0  62451-3 0  9995
2 40074  98.3401 347.4200 0005614  66.0381 294.1423 14.91779802523050
Epoch (UTC): 03 March 2024 18:23:09
Eccentricity: 0.0005614
inclination: 98.3401°
perigee height: 588 km
apogee height: 596 km
right ascension of ascending node: 347.4200°
argument of perigee: 66.0381°
revolutions per day: 14.91779802
mean anomaly at epoch: 294.1423°
orbit number at epoch: 52305

The dashed part of the orbit path shows where the satellite is in the earth's shadow,  

DLR